Weather reports worldwide

Advertisment
Ajaccio, France (7761): temperature & dewpoint: 18.04.2018 06:00:00 - 24.04.2018 06:00:00 (CEST)Ajaccio, France (7761): temperature 5cm: 18.04.2018 06:00:00 - 24.04.2018 06:00:00 (CEST)Ajaccio, France (7761): temperature -20cm & temperature -100cm: 18.04.2018 06:00:00 - 24.04.2018 06:00:00 (CEST)Ajaccio, France (7761): wind speed & gusts: 18.04.2018 06:00:00 - 24.04.2018 06:00:00 (CEST)Ajaccio, France (7761): wind direction: 18.04.2018 06:00:00 - 24.04.2018 06:00:00 (CEST)Ajaccio, France (7761): reduced air pressure: 18.04.2018 06:00:00 - 24.04.2018 06:00:00 (CEST)Ajaccio, France (7761): visibility: 18.04.2018 06:00:00 - 24.04.2018 06:00:00 (CEST)Ajaccio, France (7761): sunshine duration: 18.04.2018 06:00:00 - 24.04.2018 06:00:00 (CEST)Ajaccio, France (7761): precipitation: 18.04.2018 06:00:00 - 24.04.2018 06:00:00 (CEST)
Date & Time tt [°C] td [°C] tt 5cm [°C] tt -20cm [°C] tt -100cm [°C] ff [km/h] ff [kn] fx [km/h] fx [kn] dd ppp [hPa] vv [km] sd [min] rr [mm]
24.04.2018 06:00:00 11,3 7,6 9,5 19,7 16,9 7 4 14 8 E 1018,3 41 0 0,0
24.04.2018 05:00:00 11,5 8,0 9,8 19,9 16,9 10 5 13 7 NE 1018,4 35 0 0,0
24.04.2018 04:00:00 11,6 8,3 10,3 20,0 16,9 10 5 15 8 NE 1018,6 29 0 0,0
24.04.2018 03:00:00 12,2 8,8 10,8 20,2 16,9 9 5 13 7 NE 1018,7 21 0 0,0
24.04.2018 02:00:00 13,1 9,3 11,6 20,3 16,9 6 4 12 6 NNE 1018,7 24 0 0,0
24.04.2018 01:00:00 13,5 9,3 11,8 20,4 16,9 9 5 13 7 ENE 1019,5 17 0 0,0
24.04.2018 00:00:00 13,1 9,5 11,9 20,5 16,9 8 5 9 5 NE 1019,6 15 0 0,0
23.04.2018 23:00:00 14,5 9,9 12,9 20,5 16,9 6 3 11 6 NE 1019,6 13 0 0,0
23.04.2018 22:00:00 15,3 10,5 12,6 20,5 16,9 7 4 12 7 NE 1019,2 8 0 0,0
23.04.2018 21:00:00 16,4 11,1 12,4 20,4 16,9 6 3 8 4 NE 1018,9 15 0 0,0
23.04.2018 20:00:00 18,4 10,7 15,4 20,1 16,8 3 2 16 9 SSE 1018,7 30 18 0,0
23.04.2018 19:00:00 18,9 12,2 18,4 19,9 16,8 14 8 22 12 S 1019,0 39 31 0,0
23.04.2018 18:00:00 21,1 12,5 23,0 19,6 16,9 16 9 29 16 S 1018,8 15 60 0,0
23.04.2018 17:00:00 21,1 14,3 23,8 19,3 16,8 20 11 30 16 S 1018,8 13 60 0,0
23.04.2018 16:00:00 21,7 13,8 25,6 19,0 16,8 19 10 28 15 S 1019,1 14 60 0,0
23.04.2018 15:00:00 21,4 13,6 29,3 18,8 16,8 16 9 23 12 SSW 1019,5 15 60 0,0
23.04.2018 14:00:00 20,8 14,2 29,9 18,6 16,8 16 9 23 13 SSW 1019,8 18 60 0,0
23.04.2018 13:00:00 20,6 14,9 30,7 18,6 16,8 17 9 23 13 SSW 1020,2 21 60 0,0
23.04.2018 12:00:00 20,0 14,1 30,2 18,6 16,8 13 7 18 10 SW 1020,5 20 54 0,0
23.04.2018 11:00:00 19,3 11,3 28,1 18,7 16,8 8 5 13 7 WSW 1020,6 30 60 0,0
23.04.2018 10:00:00 18,5 11,1 25,6 18,8 16,8 5 3 9 5 W 1020,3 20 60 0,0
23.04.2018 09:00:00 18,0 9,3 17,1 18,9 16,7 3 1 8 4 SE 1020,2 47 60 0,0
23.04.2018 08:00:00 13,9 9,3 10,2 19,1 16,8 6 3 16 9 E 1019,5 20 60 0,0
23.04.2018 07:00:00 10,8 8,2 9,1 19,3 16,7 11 6 14 8 NE 1019,1 35 3 0,0
23.04.2018 06:00:00 10,8 8,2 9,4 19,5 16,7 8 4 13 7 NE 1019,1 30 0 0,0
23.04.2018 05:00:00 11,6 8,3 9,8 19,6 16,7 9 5 16 9 NE 1019,2 36 0 0,0
23.04.2018 04:00:00 12,1 8,4 10,1 19,8 16,7 13 7 17 9 NE 1019,2 44 0 0,0
23.04.2018 03:00:00 11,7 8,4 10,4 19,9 16,7 11 6 16 9 NE 1019,4 31 0 0,0
23.04.2018 02:00:00 12,3 8,8 10,1 20,0 16,7 4 2 12 6 ENE 1019,9 34 0 0,0
23.04.2018 01:00:00 13,3 9,0 11,9 20,1 16,7 11 6 14 8 NE 1019,9 36 0 0,0
23.04.2018 00:00:00 14,0 9,6 12,4 20,2 16,7 10 5 16 8 NE 1019,8 32 0 0,0
22.04.2018 23:00:00 14,2 10,2 12,6 20,2 16,7 10 5 12 7 ENE 1019,6 21 0 0,0
22.04.2018 22:00:00 16,4 11,8 12,0 20,2 16,7 6 4 9 5 NE 1019,3 15 0 0,0
22.04.2018 21:00:00 17,3 12,6 12,7 20,1 16,7 3 1 4 2 ENE 1018,7 23 0 0,0
22.04.2018 20:00:00 19,4 14,6 16,0 19,9 16,7 0 0 13 7 N 1018,1 26 0 0,0
22.04.2018 19:00:00 20,4 15,0 21,1 19,6 16,6 9 5 18 10 SSW 1018,1 20 0 0,0
22.04.2018 18:00:00 21,2 14,8 23,6 19,3 16,6 14 8 21 12 SSW 1018,0 20 0 0,0
22.04.2018 17:00:00 21,3 14,9 24,2 19,0 16,6 18 10 25 13 S 1018,1 17 0 0,0
22.04.2018 16:00:00 21,4 14,5 25,8 18,7 16,6 15 8 23 13 SSW 1018,3 18 0 0,0
22.04.2018 15:00:00 21,1 13,8 29,3 18,4 16,6 17 9 24 13 SSW 1018,7 20 0 0,0
22.04.2018 14:00:00 21,0 15,5 29,0 18,3 16,6 19 10 27 15 WSW 1018,6 20 0 0,0
22.04.2018 13:00:00 20,1 12,1 31,0 18,2 16,6 9 5 14 8 WSW 1019,0 20 0 0,0
22.04.2018 12:00:00 19,5 14,1 29,9 18,3 16,6 9 5 14 8 SW 1019,5 33 30 0,0
22.04.2018 11:00:00 19,0 13,6 27,2 18,3 16,6 11 6 18 10 SSW 1019,6 20 60 0,0
22.04.2018 10:00:00 18,0 12,7 24,1 18,5 16,6 10 5 18 10 WSW 1019,6 49 60 0,0
22.04.2018 09:00:00 17,2 10,6 15,5 18,6 16,5 4 2 12 6 NNE 1019,2 60 60 0,0
22.04.2018 08:00:00 12,5 8,6 8,9 18,8 16,5 11 6 19 10 NE 1018,7 60 60 0,0
22.04.2018 07:00:00 9,7 7,5 8,2 19,0 16,5 11 6 16 9 NE 1018,4 36 2 0,0
22.04.2018 06:00:00 9,5 7,6 8,3 19,2 16,5 10 5 14 7 NE 1018,3 27 0 0,0
22.04.2018 05:00:00 9,9 8,2 8,6 19,3 16,5 7 4 14 7 ENE 1018,6 22 0 0,0
22.04.2018 04:00:00 10,1 8,4 8,8 19,5 16,5 9 5 12 6 NE 1018,9 13 0 0,0
22.04.2018 03:00:00 11,1 9,2 9,5 19,6 16,5 6 3 10 5 NNE 1018,8 14 0 0,0
22.04.2018 02:00:00 11,5 9,2 10,2 19,8 16,5 7 4 10 5 NE 1019,0 13 0 0,0
22.04.2018 01:00:00 11,7 9,6 10,2 19,9 16,5 8 4 10 5 ENE 1019,5 11 0 0,0
22.04.2018 00:00:00 12,9 9,9 10,5 19,9 16,5 0 0 8 4 N 1019,6 10 0 0,0
21.04.2018 23:00:00 13,9 10,7 12,2 19,9 16,5 6 3 12 6 NE 1019,3 18 0 0,0
21.04.2018 22:00:00 14,4 11,5 12,9 19,9 16,5 9 5 12 6 NE 1019,2 10 0 0,0
21.04.2018 21:00:00 16,3 14,3 11,7 19,8 16,5 3 2 4 2 E 1018,8 6 0 0,0
21.04.2018 20:00:00 17,9 14,8 15,4 19,6 16,5 0 0 7 4 N 1018,4 13 52 0,0
21.04.2018 19:00:00 19,2 15,7 20,9 19,3 16,4 5 3 10 5 SSW 1018,5 14 60 0,0
21.04.2018 18:00:00 19,7 15,8 22,9 19,0 16,4 8 5 15 8 SW 1018,8 15 60 0,0
21.04.2018 17:00:00 19,7 15,3 23,7 18,7 16,4 11 6 17 9 SSW 1019,1 17 60 0,0
21.04.2018 16:00:00 20,0 16,2 25,2 18,4 16,4 12 6 18 10 SSW 1019,4 16 60 0,0
21.04.2018 15:00:00 19,9 15,5 29,0 18,2 16,4 14 7 19 10 SW 1019,8 17 60 0,0
21.04.2018 14:00:00 19,3 16,0 28,9 18,1 16,4 14 7 19 10 SW 1019,9 19 60 0,0
21.04.2018 13:00:00 18,9 15,0 29,1 18,0 16,4 13 7 19 10 SW 1020,1 20 60 0,0
21.04.2018 12:00:00 18,8 14,3 28,4 17,9 16,4 13 7 18 10 WSW 1020,3 19 60 0,0
21.04.2018 11:00:00 18,3 14,8 27,7 18,1 16,4 11 6 16 9 SW 1020,4 20 60 0,0
21.04.2018 10:00:00 17,6 11,8 23,9 18,2 16,4 8 4 11 6 SW 1020,1 42 60 0,0
21.04.2018 09:00:00 16,6 10,9 15,0 18,3 16,4 2 1 14 8 ENE 1019,9 38 60 0,0
21.04.2018 08:00:00 12,2 9,9 9,5 18,5 16,4 9 5 14 8 NE 1019,9 20 60 0,0
21.04.2018 07:00:00 10,4 8,3 9,3 18,7 16,4 5 3 11 6 ENE 1019,8 15 1 0,0
21.04.2018 06:00:00 10,7 9,0 9,1 18,8 16,3 8 5 16 9 NE 1019,7 22 0 0,0
21.04.2018 05:00:00 10,5 8,9 9,1 19,0 16,3 9 5 12 7 NE 1019,8 16 0 0,0
21.04.2018 04:00:00 10,9 9,2 9,5 19,1 16,3 9 5 13 7 ENE 1020,2 17 0 0,0
21.04.2018 03:00:00 11,1 9,5 9,9 19,3 16,3 10 5 12 7 NE 1020,2 14 0 0,0
21.04.2018 02:00:00 11,8 10,2 10,7 19,4 16,3 6 3 10 6 NE 1020,6 9 0 0,0
21.04.2018 01:00:00 12,6 10,5 11,2 19,5 16,3 8 4 11 6 NE 1021,1 12 0 0,0
21.04.2018 00:00:00 13,3 11,4 11,7 19,5 16,3 8 5 13 7 ENE 1021,5 9 0 0,0
20.04.2018 23:00:00 13,6 11,1 11,0 19,6 16,3 7 4 9 5 ENE 1021,6 8 0 0,0
20.04.2018 22:00:00 15,1 13,1 11,6 19,5 16,2 6 4 11 6 S 1021,4 16 0 0,0
20.04.2018 21:00:00 16,3 12,3 13,0 19,4 16,3 3 2 4 2 ENE 1020,8 23 0 0,0
20.04.2018 20:00:00 17,6 13,1 15,1 19,2 16,3 0 0 9 5 N 1020,4 30 46 0,0
20.04.2018 19:00:00 18,7 13,8 20,4 19,0 16,3 7 4 17 9 SSW 1020,3 32 60 0,0
20.04.2018 18:00:00 19,3 14,1 22,1 18,7 16,3 11 6 17 9 SSW 1020,5 22 - 0,0
20.04.2018 17:00:00 19,9 14,7 23,5 18,4 16,2 11 6 16 9 SSW 1020,7 20 - 0,0
20.04.2018 16:00:00 20,3 14,4 25,7 18,1 16,2 13 7 20 11 SSW 1021,3 17 - 0,0
20.04.2018 15:00:00 19,8 14,8 27,5 17,9 16,2 15 8 24 13 SSW 1022,0 19 - 0,0
20.04.2018 14:00:00 19,8 15,2 27,9 17,7 16,2 18 10 26 14 SSW 1022,3 20 - 0,0
20.04.2018 13:00:00 20,4 14,1 29,2 17,6 16,2 16 9 24 13 SSW 1022,6 26 - 0,0
20.04.2018 12:00:00 19,5 13,9 29,1 17,6 16,2 13 7 19 10 SSW 1022,8 20 - 0,0
20.04.2018 11:00:00 18,9 14,4 28,3 17,6 16,2 10 5 13 7 SW 1022,9 36 - 0,0
20.04.2018 10:00:00 19,4 11,4 22,8 17,8 16,2 5 3 9 5 WSW 1022,6 20 - 0,0
20.04.2018 09:00:00 17,3 11,3 15,5 17,9 16,2 4 2 13 7 NE 1022,8 45 - 0,0
20.04.2018 08:00:00 13,4 9,6 10,6 18,0 16,2 9 5 16 9 NE 1022,7 49 - 0,0
20.04.2018 07:00:00 11,2 8,8 10,1 18,2 16,2 11 6 16 9 NE 1022,7 35 - 0,0
20.04.2018 06:00:00 11,6 9,0 9,8 18,4 16,2 12 6 18 10 NE 1022,6 34 - 0,0
20.04.2018 05:00:00 11,4 8,8 10,1 18,5 16,1 11 6 21 11 NE 1022,7 31 - 0,0
20.04.2018 04:00:00 11,4 9,1 10,1 18,7 16,1 11 6 16 8 NE 1023,0 29 - 0,0
20.04.2018 03:00:00 11,6 9,5 10,1 18,8 16,1 11 6 16 8 NE 1023,2 27 - 0,0
20.04.2018 02:00:00 12,0 9,6 10,3 18,9 16,1 11 6 14 7 NE 1023,8 23 - 0,0
20.04.2018 01:00:00 12,7 9,9 10,4 19,0 16,1 3 2 13 7 N 1024,1 20 - 0,0
20.04.2018 00:00:00 13,2 9,8 11,8 19,1 16,1 10 6 16 9 NE 1024,2 27 - 0,0
19.04.2018 23:00:00 14,0 10,2 12,5 19,1 16,1 10 5 14 8 ENE 1024,3 25 - 0,0
19.04.2018 22:00:00 15,1 10,3 12,8 19,0 16,1 9 5 12 6 NE 1024,5 29 - 0,0
19.04.2018 21:00:00 17,6 11,8 13,6 19,0 16,1 4 2 10 5 NE 1024,2 34 - 0,0
19.04.2018 20:00:00 19,5 10,2 17,0 18,8 16,1 6 3 29 15 WNW 1023,8 48 - 0,0
19.04.2018 19:00:00 21,1 10,3 21,1 18,6 16,1 6 3 16 9 WSW 1023,7 49 - 0,0
19.04.2018 18:00:00 20,2 12,2 21,6 18,4 16,0 14 8 19 10 SSW 1024,0 26 - 0,0
19.04.2018 17:00:00 20,9 12,6 24,2 18,2 16,0 13 7 19 11 SSW 1024,3 29 - 0,0
19.04.2018 16:00:00 21,3 12,2 22,2 18,0 16,1 13 7 18 10 SSW 1024,6 20 - 0,0
19.04.2018 15:00:00 18,9 13,5 21,9 17,7 16,0 7 4 11 6 SW 1025,4 37 - 0,0
19.04.2018 14:00:00 18,8 13,0 23,3 17,5 16,0 6 3 17 9 SW 1025,5 28 - 0,0
19.04.2018 13:00:00 19,4 13,8 27,2 17,5 16,0 13 7 23 13 WSW 1025,5 20 - 0,0
19.04.2018 12:00:00 19,2 13,1 26,8 17,4 16,0 17 9 26 14 WSW 1025,7 24 - 0,0
19.04.2018 11:00:00 19,5 12,3 26,4 17,5 16,0 15 8 23 12 WSW 1025,3 27 - 0,0
19.04.2018 10:00:00 20,4 11,6 24,0 17,6 16,0 4 2 9 5 SSW 1025,1 19 - 0,0
19.04.2018 09:00:00 17,9 11,5 15,4 17,8 16,0 7 4 16 9 NNE 1025,0 19 - 0,0
19.04.2018 08:00:00 13,9 9,7 11,5 17,9 16,0 13 7 17 9 NE 1024,9 20 - 0,0
19.04.2018 07:00:00 12,3 9,1 10,4 18,0 16,0 9 5 18 10 NNE 1024,7 36 - 0,0
19.04.2018 06:00:00 12,1 9,3 10,8 18,1 16,0 6 4 14 7 NE 1024,7 31 - 0,0
19.04.2018 05:00:00 12,3 10,0 11,2 18,3 16,0 13 7 18 10 NE 1025,0 36 - 0,0
19.04.2018 04:00:00 13,2 10,4 11,5 18,4 15,9 9 5 13 7 NNE 1025,0 30 - 0,0
19.04.2018 03:00:00 12,8 10,9 11,4 18,5 15,9 8 4 10 6 NNE 1025,3 20 - 0,0
19.04.2018 02:00:00 13,4 11,3 12,0 18,6 15,9 3 2 9 5 NNE 1025,5 21 - 0,0
19.04.2018 01:00:00 13,6 11,5 12,1 18,7 15,9 4 2 10 5 NE 1025,7 20 - 0,0
19.04.2018 00:00:00 13,0 10,9 12,0 18,8 15,9 5 3 14 7 ENE 1025,5 15 - 0,0
18.04.2018 23:00:00 13,7 11,4 12,2 18,8 15,9 4 2 10 5 NNE 1025,4 16 - 0,0
18.04.2018 22:00:00 15,1 12,2 12,6 18,7 15,9 5 3 9 5 NE 1025,3 8 - 0,0
18.04.2018 21:00:00 16,0 13,3 13,3 18,7 15,9 3 1 9 5 E 1024,9 25 - 0,0
18.04.2018 20:00:00 17,2 14,1 16,0 18,5 15,9 8 4 18 10 W 1024,5 35 - 0,0
18.04.2018 19:00:00 17,7 13,4 18,4 18,3 15,9 9 5 15 8 SSW 1024,2 30 - 0,0
18.04.2018 18:00:00 19,1 13,3 21,9 18,1 15,9 9 5 18 10 SW 1024,1 21 - 0,0
18.04.2018 17:00:00 19,7 13,6 23,6 17,9 15,9 13 7 17 9 SSW 1024,0 13 - 0,0
18.04.2018 16:00:00 20,2 13,2 25,6 17,7 15,9 10 5 19 10 SW 1024,4 11 - 0,0
18.04.2018 15:00:00 19,6 13,1 24,3 17,5 15,9 16 9 23 12 SSW 1024,5 10 - 0,0
18.04.2018 14:00:00 18,9 12,4 23,0 17,3 15,8 14 8 23 13 S 1024,7 8 - 0,0
18.04.2018 13:00:00 18,8 13,4 23,9 17,2 15,8 17 9 23 13 SSW 1024,9 6 - 0,0
18.04.2018 12:00:00 17,1 14,4 20,5 17,2 15,8 12 6 18 10 WSW 1024,6 6 - 0,0
18.04.2018 11:00:00 16,0 14,0 22,7 17,3 15,8 11 6 16 8 WSW 1024,8 2,6 - 0,0
18.04.2018 10:00:00 16,7 13,8 23,3 17,4 15,8 9 5 13 7 SW 1024,5 19 - 0,0
18.04.2018 09:00:00 15,6 11,6 15,2 17,5 15,8 3 2 8 4 NNW 1024,1 20 - 0,0
18.04.2018 08:00:00 12,7 11,4 9,8 17,7 15,7 5 3 16 9 N 1023,9 15 - 0,0
18.04.2018 07:00:00 11,2 9,9 9,1 17,8 15,7 5 3 16 8 NE 1023,6 12 - 0,0
18.04.2018 06:00:00 11,7 10,4 9,2 18,0 15,8 4 2 14 8 N 1022,8 14 - 0,2

tt = temperature
td = dewpoint
tt 5cm = temperature 5cm
tt -20cm = temperature -20cm
tt -100cm = temperature -100cm
ff = wind speed
fx = gusts
dd = wind direction
ppp = reduced air pressure
vv = visibility
sd = sunshine duration
rr = precipitation

Next stations